Location: Te Maire Creek
(41.1333°S, 175.9167°E)
Time: 22:04:17
(UTC+00:00)

Helios 1B rocket - Pass Details

Date: 19 May 2024
Orbit: 533 x 544 km, 98.2° (Epoch: 22 June)

Event Time Altitude Azimuth Distance (km) Brightness Sun altitude
Rises 17:34:35 0° 35° (NE) 2,681 6.5 -20.0°
Reaches altitude 10° 17:36:48 10° 45° (NE) 1,800 5.7 -19.6°
Maximum altitude 17:40:19 34° 110° (ESE) 916 3.9 -19.0°
Drops below altitude 10° 17:43:54 10° 175° (S) 1,830 4.9 -18.3°
Sets 17:46:10 0° 183° (S) 2,733 5.7 -17.9°
